Date String (YYYY-MM-DD hh:mm:ss) UTC,Instrument flags,Ambient pressure (hPa),Sample flow (lpm),Bypass flow (lpm),Sample temperature (°C),Ambient temperature (°C),ASC tube jacket temperature (°C),LED temperature (°C),Box temperature (°C),Sample RH (%),Span deviation,Mass concentration (μg/m³),Mass concentration (μg/m³),Mass concentration (μg/m³)
DateTimeUTC,F1_M11,P_M11,Q1_M11,Q2_M11,T1_M11,T2_M11,T3_M11,T4_M11,T5_M11,U1_M11,ZSPAN_M11,X2_M11,X0_M11,X1_M11
2021-11-12 05:00:00,,0828.8,4.99,0.00,24.6,23.9,00.0,33.6,26.4,10.7,0000.0,0003.15,0009.58,0001.81
2021-11-12 05:01:00,,0828.7,5.01,0.00,24.6,23.9,00.0,33.6,26.4,10.5,0000.0,0003.14,0009.47,0001.82
2021-11-12 05:02:00,,0828.9,5.00,0.00,24.6,23.9,00.0,33.6,26.4,10.5,0000.0,0003.14,0009.65,0001.82
2021-11-12 05:03:00,,0829.0,5.00,0.00,24.6,23.9,00.0,33.6,26.4,10.5,0000.0,0003.09,0009.14,0001.82
2021-11-12 05:04:00,,0829.1,5.01,0.00,24.6,23.9,00.0,33.6,26.4,10.5,0000.0,0003.05,0009.13,0001.84
2021-11-12 05:05:00,,0829.0,4.98,0.00,24.6,23.9,00.0,33.6,26.5,10.5,0000.0,0003.03,0008.80,0001.84
2021-11-12 05:06:00,,0829.0,5.01,0.00,24.7,23.9,00.0,33.6,26.5,10.5,0000.0,0003.10,0008.85,0001.85
2021-11-12 05:07:00,,0829.0,4.99,0.00,24.7,24.0,00.0,33.7,26.5,10.5,0000.0,0003.15,0008.69,0001.85
2021-11-12 05:08:00,,0828.9,5.00,0.00,24.7,24.0,00.0,33.7,26.5,10.4,0000.0,0003.13,0008.74,0001.83
2021-11-12 05:09:00,,0829.1,5.01,0.00,24.7,24.0,00.0,33.7,26.5,10.4,0000.0,0003.07,0008.19,0001.82
2021-11-12 05:10:00,,0828.9,5.00,0.00,24.7,23.9,00.0,33.7,26.5,10.4,0000.0,0002.99,0008.00,0001.81
2021-11-12 05:11:00,,0828.9,5.00,0.00,24.7,23.9,00.0,33.7,26.5,10.4,0000.0,0002.96,0008.97,0001.81
2021-11-12 05:12:00,,0828.9,4.98,0.00,24.6,23.8,00.0,33.7,26.4,10.4,0000.0,0002.95,0009.43,0001.81
2021-11-12 05:13:00,,0828.8,5.00,0.00,24.6,23.7,00.0,33.7,26.4,10.3,0000.0,0002.96,0009.30,0001.81
2021-11-12 05:14:00,,0828.9,5.01,0.00,24.6,23.7,00.0,33.7,26.4,10.3,0000.0,0002.96,0009.24,0001.81
2021-11-12 05:15:00,,0829.0,4.99,0.00,24.6,23.6,00.0,33.6,26.4,10.4,0000.0,0003.00,0009.26,0001.82
2021-11-12 05:16:00,,0829.3,5.01,0.00,24.6,23.6,00.0,33.6,26.3,10.3,0000.0,0003.01,0009.70,0001.82
2021-11-12 05:17:00,,0829.3,5.00,0.00,24.6,23.7,00.0,33.6,26.3,10.3,0000.0,0002.92,0009.51,0001.80
2021-11-12 05:18:00,,0829.3,4.99,0.00,24.6,23.7,00.0,33.6,26.3,10.4,0000.0,0002.82,0009.65,0001.80
2021-11-12 05:19:00,,0829.3,5.01,0.00,24.5,23.7,00.0,33.6,26.3,10.4,0000.0,0002.82,0010.20,0001.81
2021-11-12 05:20:00,,0829.4,4.99,0.00,24.5,23.8,00.0,33.6,26.3,10.3,0000.0,0002.83,0010.82,0001.81
2021-11-12 05:21:00,,0829.5,5.01,0.00,24.5,23.8,00.0,33.6,26.3,10.3,0000.0,0002.86,0010.82,0001.82
2021-11-12 05:22:00,,0829.5,4.99,0.00,24.5,23.8,00.0,33.6,26.3,10.3,0000.0,0002.86,0009.85,0001.83
2021-11-12 05:23:00,,0829.5,5.01,0.00,24.5,23.8,00.0,33.6,26.3,10.3,0000.0,0002.83,0009.33,0001.83
2021-11-12 05:24:00,,0829.3,4.99,0.00,24.5,23.8,00.0,33.6,26.2,10.3,0000.0,0002.79,0009.14,0001.84
2021-11-12 05:25:00,,0829.2,5.00,0.00,24.5,23.8,00.0,33.5,26.2,10.2,0000.0,0002.81,0009.05,0001.83
2021-11-12 05:26:00,,0829.3,4.99,0.00,24.5,23.7,00.0,33.5,26.2,10.1,0000.0,0002.81,0009.22,0001.83
2021-11-12 05:27:00,,0829.3,5.01,0.00,24.4,23.7,00.0,33.5,26.1,10.2,0000.0,0002.81,0009.06,0001.83
2021-11-12 05:28:00,,0829.2,5.00,0.00,24.4,23.6,00.0,33.5,26.1,10.2,0000.0,0002.83,0008.92,0001.82
2021-11-12 05:29:00,,0829.3,5.00,0.00,24.4,23.6,00.0,33.5,26.1,10.0,0000.0,0002.88,0008.84,0001.83
2021-11-12 05:30:00,,0829.4,4.99,0.00,24.4,23.6,00.0,33.5,26.1,10.0,0000.0,0002.95,0008.68,0001.86
2021-11-12 05:31:00,,0829.5,5.01,0.00,24.4,23.6,00.0,33.5,26.1,10.0,0000.0,0002.97,0007.44,0001.86
2021-11-12 05:32:00,,0829.3,4.99,0.00,24.3,23.6,00.0,33.5,26.1,10.0,0000.0,0002.97,0007.48,0001.86
2021-11-12 05:33:00,,0829.2,5.01,0.00,24.3,23.5,00.0,33.5,26.0,10.0,0000.0,0003.02,0007.48,0001.87
2021-11-12 05:34:00,,0829.2,4.99,0.00,24.3,23.5,00.0,33.4,26.0,10.0,0000.0,0003.06,0008.28,0001.86
2021-11-12 05:35:00,,0829.2,5.00,0.00,24.3,23.5,00.0,33.4,26.0,10.0,0000.0,0003.11,0008.49,0001.87
2021-11-12 05:36:00,,0829.2,5.00,0.00,24.3,23.5,00.0,33.4,26.0,10.0,0000.0,0003.09,0008.40,0001.88
2021-11-12 05:37:00,,0829.3,5.00,0.00,24.3,23.5,00.0,33.4,26.0,10.0,0000.0,0003.10,0008.49,0001.88
2021-11-12 05:38:00,,0829.2,5.00,0.00,24.3,23.5,00.0,33.4,26.0,10.0,0000.0,0003.12,0008.37,0001.88
2021-11-12 05:39:00,,0829.3,5.00,0.00,24.2,23.5,00.0,33.4,26.0,10.0,0000.0,0003.10,0008.39,0001.88
2021-11-12 05:40:00,,0829.3,4.99,0.00,24.2,23.5,00.0,33.4,26.0,10.0,0000.0,0003.09,0008.35,0001.88
2021-11-12 05:41:00,,0829.4,5.00,0.00,24.3,23.5,00.0,33.4,26.1,10.0,0000.0,0003.05,0007.95,0001.85
2021-11-12 05:42:00,,0829.3,5.00,0.00,24.3,23.6,00.0,33.4,26.1,10.0,0000.0,0003.05,0008.20,0001.85
2021-11-12 05:43:00,,0829.2,4.99,0.00,24.3,23.6,00.0,33.4,26.2,10.0,0000.0,0003.10,0008.33,0001.87
2021-11-12 05:44:00,,0829.2,5.00,0.00,24.3,23.6,00.0,33.4,26.2,10.0,0000.0,0003.10,0009.65,0001.86
2021-11-12 05:45:00,,0829.3,5.01,0.00,24.3,23.6,00.0,33.4,26.2,10.0,0000.0,0003.11,0009.16,0001.86
2021-11-12 05:46:00,,0829.4,5.01,0.00,24.3,23.6,00.0,33.4,26.2,10.0,0000.0,0003.03,0008.79,0001.83
2021-11-12 05:47:00,,0829.3,4.99,0.00,24.3,23.6,00.0,33.4,26.2,10.0,0000.0,0003.06,0008.85,0001.83
2021-11-12 05:48:00,,0829.3,5.01,0.00,24.4,23.7,00.0,33.4,26.2,10.0,0000.0,0003.05,0008.60,0001.82
2021-11-12 05:49:00,,0829.3,5.00,0.00,24.4,23.7,00.0,33.4,26.2,10.0,0000.0,0003.02,0008.34,0001.83
2021-11-12 05:50:00,,0829.2,4.99,0.00,24.4,23.7,00.0,33.4,26.2,10.0,0000.0,0003.09,0008.42,0001.85
2021-11-12 05:51:00,,0829.2,5.01,0.00,24.4,23.7,00.0,33.4,26.2,10.0,0000.0,0003.00,0008.46,0001.83
2021-11-12 05:52:00,,0829.2,4.98,0.00,24.4,23.7,00.0,33.4,26.2,10.0,0000.0,0002.98,0008.82,0001.82
2021-11-12 05:53:00,,0829.3,5.00,0.00,24.4,23.7,00.0,33.4,26.2,10.0,0000.0,0002.96,0008.77,0001.82
2021-11-12 05:54:00,,0829.2,5.00,0.00,24.4,23.7,00.0,33.4,26.2,10.1,0000.0,0002.90,0008.61,0001.80
2021-11-12 05:55:00,,0829.4,5.00,0.00,24.4,23.6,00.0,33.4,26.2,10.1,0000.0,0002.88,0007.63,0001.81
2021-11-12 05:56:00,,0829.5,5.00,0.00,24.3,23.6,00.0,33.4,26.1,10.1,0000.0,0002.83,0006.68,0001.80
2021-11-12 05:57:00,,0829.5,5.00,0.00,24.3,23.6,00.0,33.4,26.1,10.1,0000.0,0002.87,0006.96,0001.81
2021-11-12 05:58:00,,0829.5,5.01,0.00,24.3,23.5,00.0,33.4,26.0,10.1,0000.0,0002.86,0007.01,0001.83
2021-11-12 05:59:00,,0829.5,4.99,0.00,24.3,23.5,00.0,33.3,26.0,10.1,0000.0,0002.88,0007.17,0001.84
